Back to catalog

STARLINK-33735

AliveCommunicationsVLEO
NORAD 63474·PAYLOAD·🇺🇸 United States

Launched Apr 6, 2025 from Cape Canaveral Space Force Station

Loading…

Next Passes (next 24 hours)

TLE

FreshSource: CelesTrak SupGP

Epoch: Sep 14, 2026, 14:42 UTC

1 63474C 25070Q   26257.61298611  .00005849  00000+0  21191-3 0  2573
2 63474  43.0023 272.7311 0001487 274.7139 359.3091 15.27568370    19

Track STARLINK-33735 in real time with AllMySat

Download on the App Store